Time,TemperatureF,DewpointF,PressureIn,WindDirection,WindDirectionDegrees,WindSpeedMPH,WindSpeedGustMPH,Humidity,HourlyPrecipIn,Conditions,Clouds,dailyrainin,SoftwareType,DateUTC
2013-03-06 00:00:00,32.6,30.5,29.16,North,0,3.1,4.0,92,0.00,,,0.01,WUHU216HW,2013-03-06 05:00:00,
2013-03-06 00:05:00,32.6,30.5,29.16,North,0,2.0,4.3,92,0.00,,,0.00,WUHU216HW,2013-03-06 05:05:00,
2013-03-06 00:10:00,32.6,30.5,29.15,North,0,0.9,5.8,92,0.00,,,0.00,WUHU216HW,2013-03-06 05:10:00,
2013-03-06 00:15:00,32.4,30.3,29.14,North,0,8.3,9.4,92,0.00,,,0.00,WUHU216HW,2013-03-06 05:15:00,
2013-03-06 00:20:00,32.4,30.3,29.14,North,0,6.3,9.6,92,0.00,,,0.00,WUHU216HW,2013-03-06 05:20:00,
2013-03-06 00:25:00,32.4,30.3,29.12,North,0,2.5,15.9,92,0.00,,,0.00,WUHU216HW,2013-03-06 05:25:00,
2013-03-06 00:30:00,32.4,30.3,29.12,North,0,8.5,15.9,92,0.00,,,0.00,WUHU216HW,2013-03-06 05:30:00,
2013-03-06 00:35:00,32.4,30.6,29.11,NNE,23,14.5,17.7,93,0.00,,,0.00,WUHU216HW,2013-03-06 05:35:00,
2013-03-06 00:40:00,32.4,30.6,29.11,North,0,9.2,17.7,93,0.00,,,0.00,WUHU216HW,2013-03-06 05:40:00,
2013-03-06 00:45:00,32.4,30.6,29.11,North,0,2.5,14.5,93,0.00,,,0.00,WUHU216HW,2013-03-06 05:45:00,
2013-03-06 00:50:00,32.4,30.6,29.11,North,0,5.4,15.4,93,0.00,,,0.00,WUHU216HW,2013-03-06 05:50:00,
2013-03-06 00:55:00,32.4,30.6,29.10,North,0,10.3,16.8,93,0.00,,,0.00,WUHU216HW,2013-03-06 05:55:00,
2013-03-06 01:00:00,32.4,30.6,29.10,North,0,4.3,16.8,93,0.00,,,0.00,WUHU216HW,2013-03-06 06:00:00,
2013-03-06 01:05:00,32.4,30.6,29.10,North,0,4.9,13.2,93,0.00,,,0.00,WUHU216HW,2013-03-06 06:05:00,
2013-03-06 01:10:00,32.4,30.6,29.10,North,0,4.0,10.1,93,0.00,,,0.00,WUHU216HW,2013-03-06 06:10:00,
2013-03-06 01:15:00,32.4,30.6,29.11,North,0,10.3,15.0,93,0.00,,,0.00,WUHU216HW,2013-03-06 06:15:00,
2013-03-06 01:20:00,32.4,30.6,29.10,North,0,5.4,15.0,93,0.00,,,0.00,WUHU216HW,2013-03-06 06:20:00,
2013-03-06 01:25:00,32.4,30.6,29.10,North,0,13.6,13.6,93,0.00,,,0.00,WUHU216HW,2013-03-06 06:25:00,
2013-03-06 01:30:00,32.2,30.4,29.10,North,0,7.6,14.1,93,0.01,,,0.01,WUHU216HW,2013-03-06 06:30:00,
2013-03-06 01:35:00,32.2,30.4,29.10,North,0,4.9,14.1,93,0.01,,,0.01,WUHU216HW,2013-03-06 06:35:00,
2013-03-06 01:40:00,32.2,30.4,29.10,North,0,4.0,12.8,93,0.01,,,0.01,WUHU216HW,2013-03-06 06:40:00,
2013-03-06 01:45:00,32.2,30.4,29.10,North,0,4.5,12.1,93,0.01,,,0.01,WUHU216HW,2013-03-06 06:45:00,
2013-03-06 01:50:00,32.2,30.4,29.09,North,0,4.0,12.1,93,0.01,,,0.01,WUHU216HW,2013-03-06 06:50:00,
2013-03-06 01:55:00,32.2,30.4,29.09,North,0,3.4,6.9,93,0.01,,,0.01,WUHU216HW,2013-03-06 06:55:00,
2013-03-06 02:00:00,32.2,30.4,29.09,North,0,4.9,7.6,93,0.01,,,0.01,WUHU216HW,2013-03-06 07:00:00,
2013-03-06 02:05:00,32.2,30.4,29.09,North,0,2.7,7.6,93,0.01,,,0.01,WUHU216HW,2013-03-06 07:05:00,
2013-03-06 02:10:00,32.2,30.4,29.09,North,0,3.4,7.6,93,0.01,,,0.01,WUHU216HW,2013-03-06 07:10:00,
2013-03-06 02:15:00,32.2,30.4,29.09,North,0,4.9,7.6,93,0.01,,,0.01,WUHU216HW,2013-03-06 07:15:00,
2013-03-06 02:20:00,32.2,30.4,29.09,North,0,4.3,7.6,93,0.01,,,0.01,WUHU216HW,2013-03-06 07:20:00,
2013-03-06 02:25:00,32.0,30.2,29.08,North,0,4.0,7.6,93,0.00,,,0.01,WUHU216HW,2013-03-06 07:25:00,
2013-03-06 02:30:00,32.0,30.2,29.08,North,0,4.0,7.4,93,0.00,,,0.01,WUHU216HW,2013-03-06 07:30:00,
2013-03-06 02:35:00,32.0,30.2,29.08,North,0,4.9,9.8,93,0.00,,,0.01,WUHU216HW,2013-03-06 07:35:00,
2013-03-06 02:40:00,32.0,30.5,29.08,North,0,5.4,9.8,94,0.00,,,0.01,WUHU216HW,2013-03-06 07:40:00,
2013-03-06 02:45:00,32.0,30.5,29.07,North,0,7.6,8.5,94,0.00,,,0.01,WUHU216HW,2013-03-06 07:45:00,
2013-03-06 02:50:00,32.0,30.5,29.07,North,0,6.0,8.7,94,0.00,,,0.01,WUHU216HW,2013-03-06 07:50:00,
2013-03-06 02:55:00,32.0,30.5,29.07,North,0,5.8,9.8,94,0.00,,,0.01,WUHU216HW,2013-03-06 07:55:00,
2013-03-06 03:00:00,31.9,30.3,29.08,North,0,5.8,9.8,94,0.00,,,0.01,WUHU216HW,2013-03-06 08:00:00,
2013-03-06 03:05:00,31.9,30.3,29.07,North,0,6.3,7.8,94,0.00,,,0.01,WUHU216HW,2013-03-06 08:05:00,
2013-03-06 03:10:00,31.9,30.3,29.07,North,0,4.0,7.6,94,0.00,,,0.01,WUHU216HW,2013-03-06 08:10:00,
2013-03-06 03:15:00,31.9,30.3,29.07,North,0,10.5,14.1,94,0.00,,,0.01,WUHU216HW,2013-03-06 08:15:00,
2013-03-06 03:20:00,31.9,30.3,29.07,North,0,2.2,14.1,94,0.00,,,0.01,WUHU216HW,2013-03-06 08:20:00,
2013-03-06 03:25:00,31.7,30.2,29.07,North,0,5.4,10.5,94,0.00,,,0.01,WUHU216HW,2013-03-06 08:25:00,
2013-03-06 03:30:00,31.7,30.2,29.06,North,0,9.8,9.8,94,0.00,,,0.01,WUHU216HW,2013-03-06 08:30:00,
2013-03-06 03:35:00,31.7,30.2,29.07,North,0,9.2,9.8,94,0.00,,,0.01,WUHU216HW,2013-03-06 08:35:00,
2013-03-06 03:40:00,31.7,30.2,29.07,North,0,12.1,12.1,94,0.00,,,0.01,WUHU216HW,2013-03-06 08:40:00,
2013-03-06 03:45:00,31.7,30.2,29.07,North,0,11.4,12.3,94,0.00,,,0.01,WUHU216HW,2013-03-06 08:45:00,
2013-03-06 03:50:00,31.7,30.2,29.07,North,0,6.3,12.8,94,0.00,,,0.01,WUHU216HW,2013-03-06 08:50:00,
2013-03-06 03:55:00,31.7,30.2,29.07,North,0,8.5,12.8,94,0.00,,,0.01,WUHU216HW,2013-03-06 08:55:00,
2013-03-06 04:00:00,31.7,30.2,29.07,North,0,3.8,11.2,94,0.00,,,0.01,WUHU216HW,2013-03-06 09:00:00,
2013-03-06 04:05:00,31.7,30.2,29.07,North,0,8.5,9.8,94,0.00,,,0.01,WUHU216HW,2013-03-06 09:05:00,
2013-03-06 04:10:00,31.7,30.2,29.07,North,0,9.6,15.7,94,0.00,,,0.01,WUHU216HW,2013-03-06 09:10:00,
2013-03-06 04:15:00,31.7,30.2,29.07,North,0,9.8,15.7,94,0.00,,,0.01,WUHU216HW,2013-03-06 09:15:00,
2013-03-06 04:20:00,31.7,30.2,29.07,North,0,3.1,12.8,94,0.00,,,0.01,WUHU216HW,2013-03-06 09:20:00,
2013-03-06 04:25:00,31.7,30.2,29.07,North,0,4.3,12.8,94,0.00,,,0.01,WUHU216HW,2013-03-06 09:25:00,
2013-03-06 04:30:00,31.7,30.2,29.07,North,0,6.0,6.9,94,0.00,,,0.01,WUHU216HW,2013-03-06 09:30:00,
2013-03-06 04:35:00,31.7,30.2,29.07,North,0,3.1,11.4,94,0.00,,,0.01,WUHU216HW,2013-03-06 09:35:00,
2013-03-06 04:40:00,31.5,30.0,29.07,North,0,11.0,11.4,94,0.00,,,0.01,WUHU216HW,2013-03-06 09:40:00,
2013-03-06 04:45:00,31.5,30.0,29.07,North,0,11.4,11.4,94,0.00,,,0.01,WUHU216HW,2013-03-06 09:45:00,
2013-03-06 04:50:00,31.5,30.0,29.07,North,0,12.3,15.0,94,0.00,,,0.01,WUHU216HW,2013-03-06 09:50:00,
2013-03-06 04:55:00,31.5,30.0,29.07,North,0,16.3,16.3,94,0.00,,,0.01,WUHU216HW,2013-03-06 09:55:00,
2013-03-06 05:00:00,31.5,30.0,29.07,North,0,14.3,16.6,94,0.00,,,0.01,WUHU216HW,2013-03-06 10:00:00,
2013-03-06 05:05:00,31.5,30.0,29.07,North,0,12.8,16.6,94,0.00,,,0.01,WUHU216HW,2013-03-06 10:05:00,
2013-03-06 05:10:00,31.5,30.0,29.07,North,0,8.7,18.1,94,0.00,,,0.01,WUHU216HW,2013-03-06 10:10:00,
2013-03-06 05:15:00,31.5,30.0,29.07,North,0,13.9,18.1,94,0.00,,,0.01,WUHU216HW,2013-03-06 10:15:00,
2013-03-06 05:20:00,31.5,30.0,29.07,North,0,12.1,15.4,94,0.00,,,0.01,WUHU216HW,2013-03-06 10:20:00,
2013-03-06 05:25:00,31.3,29.8,29.07,North,0,13.4,15.4,94,0.00,,,0.01,WUHU216HW,2013-03-06 10:25:00,
2013-03-06 05:30:00,31.3,29.8,29.07,North,0,14.3,15.0,94,0.00,,,0.01,WUHU216HW,2013-03-06 10:30:00,
2013-03-06 05:35:00,31.3,30.1,29.07,North,0,15.0,15.0,95,0.00,,,0.01,WUHU216HW,2013-03-06 10:35:00,
2013-03-06 05:40:00,31.3,30.1,29.08,North,0,8.1,15.0,95,0.00,,,0.01,WUHU216HW,2013-03-06 10:40:00,
2013-03-06 05:45:00,31.3,30.1,29.07,North,0,7.6,17.2,95,0.00,,,0.01,WUHU216HW,2013-03-06 10:45:00,
2013-03-06 05:50:00,31.3,29.8,29.07,North,0,13.9,17.2,94,0.00,,,0.01,WUHU216HW,2013-03-06 10:50:00,
2013-03-06 05:55:00,31.3,29.8,29.08,North,0,11.4,14.3,94,0.00,,,0.01,WUHU216HW,2013-03-06 10:55:00,
2013-03-06 06:00:00,31.3,30.1,29.07,North,0,1.3,16.3,95,0.00,,,0.01,WUHU216HW,2013-03-06 11:00:00,
2013-03-06 06:05:00,31.3,30.1,29.08,North,0,9.2,16.3,95,0.00,,,0.01,WUHU216HW,2013-03-06 11:05:00,
2013-03-06 06:10:00,31.3,29.8,29.08,North,0,4.0,11.0,94,0.00,,,0.01,WUHU216HW,2013-03-06 11:10:00,
2013-03-06 06:15:00,31.3,30.1,29.08,North,0,6.3,9.2,95,0.00,,,0.01,WUHU216HW,2013-03-06 11:15:00,
2013-03-06 06:20:00,31.3,29.8,29.08,North,0,1.8,9.8,94,0.00,,,0.01,WUHU216HW,2013-03-06 11:20:00,
2013-03-06 06:27:00,31.3,29.8,29.08,North,0,5.4,14.3,94,0.00,,,0.01,WUHU216HW,2013-03-06 11:27:00,
2013-03-06 06:32:00,31.3,29.8,29.08,North,0,4.9,14.3,94,0.00,,,0.01,WUHU216HW,2013-03-06 11:32:00,
2013-03-06 06:37:00,31.3,29.8,29.08,North,0,6.5,8.3,94,0.00,,,0.01,WUHU216HW,2013-03-06 11:37:00,
2013-03-06 06:42:00,31.3,29.8,29.07,North,0,5.4,8.9,94,0.00,,,0.01,WUHU216HW,2013-03-06 11:42:00,
2013-03-06 06:47:00,31.3,30.1,29.07,North,0,7.2,9.8,95,0.00,,,0.01,WUHU216HW,2013-03-06 11:47:00,
2013-03-06 06:52:00,31.3,30.1,29.08,North,0,7.6,9.8,95,0.00,,,0.01,WUHU216HW,2013-03-06 11:52:00,
2013-03-06 06:57:00,31.3,30.1,29.07,North,0,8.9,10.1,95,0.00,,,0.01,WUHU216HW,2013-03-06 11:57:00,
2013-03-06 07:02:00,31.3,30.1,29.07,North,0,11.2,11.2,95,0.00,,,0.01,WUHU216HW,2013-03-06 12:02:00,
2013-03-06 07:07:00,31.3,30.1,29.07,North,0,4.3,11.2,95,0.00,,,0.01,WUHU216HW,2013-03-06 12:07:00,
2013-03-06 07:12:00,31.3,30.1,29.07,North,0,12.3,14.5,95,0.00,,,0.01,WUHU216HW,2013-03-06 12:12:00,
2013-03-06 07:17:00,31.3,30.1,29.07,North,0,5.6,14.5,95,0.00,,,0.01,WUHU216HW,2013-03-06 12:17:00,
2013-03-06 07:22:00,31.5,30.2,29.07,North,0,6.9,12.3,95,0.00,,,0.01,WUHU216HW,2013-03-06 12:22:00,
2013-03-06 07:27:00,31.5,30.2,29.08,North,0,18.8,18.8,95,0.00,,,0.01,WUHU216HW,2013-03-06 12:27:00,
2013-03-06 07:32:00,31.7,30.4,29.08,North,0,7.6,21.3,95,0.00,,,0.01,WUHU216HW,2013-03-06 12:32:00,
2013-03-06 07:37:00,31.5,30.2,29.09,North,0,14.8,21.3,95,0.00,,,0.01,WUHU216HW,2013-03-06 12:37:00,
2013-03-06 07:42:00,31.7,30.4,29.09,North,0,3.4,18.1,95,0.00,,,0.01,WUHU216HW,2013-03-06 12:42:00,
2013-03-06 07:47:00,31.5,30.2,29.08,North,0,7.4,14.8,95,0.00,,,0.01,WUHU216HW,2013-03-06 12:47:00,
2013-03-06 07:52:00,31.7,30.4,29.09,North,0,6.0,7.4,95,0.00,,,0.01,WUHU216HW,2013-03-06 12:52:00,
2013-03-06 07:57:00,31.7,30.4,29.09,North,0,15.7,15.7,95,0.00,,,0.01,WUHU216HW,2013-03-06 12:57:00,
2013-03-06 08:02:00,31.7,30.4,29.09,North,0,13.4,15.7,95,0.00,,,0.01,WUHU216HW,2013-03-06 13:02:00,
2013-03-06 08:07:00,31.9,30.6,29.09,North,0,10.7,17.7,95,0.00,,,0.01,WUHU216HW,2013-03-06 13:07:00,
2013-03-06 08:12:00,31.9,30.6,29.09,North,0,5.4,17.7,95,0.00,,,0.01,WUHU216HW,2013-03-06 13:12:00,
2013-03-06 08:17:00,31.9,30.6,29.09,North,0,13.2,16.1,95,0.00,,,0.01,WUHU216HW,2013-03-06 13:17:00,
2013-03-06 08:22:00,32.0,30.8,29.09,North,0,9.2,14.3,95,0.00,,,0.01,WUHU216HW,2013-03-06 13:22:00,
2013-03-06 08:27:00,32.0,30.8,29.09,North,0,9.8,14.3,95,0.00,,,0.01,WUHU216HW,2013-03-06 13:27:00,
2013-03-06 08:32:00,32.0,30.8,29.09,North,0,11.4,13.6,95,0.00,,,0.01,WUHU216HW,2013-03-06 13:32:00,
2013-03-06 08:38:00,32.0,30.8,29.09,North,0,19.0,19.0,95,0.00,,,0.01,WUHU216HW,2013-03-06 13:38:00,
2013-03-06 08:43:00,32.0,30.8,29.09,North,0,4.0,19.0,95,0.00,,,0.01,WUHU216HW,2013-03-06 13:43:00,
2013-03-06 08:47:00,32.2,31.0,29.09,North,0,4.0,19.0,95,0.00,,,0.01,WUHU216HW,2013-03-06 13:47:00,
2013-03-06 08:52:00,32.0,30.8,29.10,North,0,6.7,14.3,95,0.00,,,0.01,WUHU216HW,2013-03-06 13:52:00,
2013-03-06 08:58:00,32.0,30.8,29.10,North,0,2.2,9.8,95,0.00,,,0.01,WUHU216HW,2013-03-06 13:58:00,
2013-03-06 09:02:00,32.2,31.0,29.09,North,0,2.9,22.6,95,0.00,,,0.01,WUHU216HW,2013-03-06 14:02:00,
2013-03-06 09:08:00,32.2,31.0,29.09,North,0,5.8,22.6,95,0.00,,,0.01,WUHU216HW,2013-03-06 14:08:00,
2013-03-06 09:13:00,32.2,31.0,29.10,North,0,10.5,15.7,95,0.00,,,0.01,WUHU216HW,2013-03-06 14:13:00,
2013-03-06 09:18:00,32.2,31.0,29.10,North,0,15.7,18.1,95,0.00,,,0.01,WUHU216HW,2013-03-06 14:18:00,
2013-03-06 09:23:00,32.2,31.0,29.10,North,0,6.3,18.8,95,0.00,,,0.01,WUHU216HW,2013-03-06 14:23:00,
2013-03-06 09:28:00,32.2,31.0,29.10,North,0,4.3,18.8,95,0.00,,,0.01,WUHU216HW,2013-03-06 14:28:00,
2013-03-06 09:33:00,32.4,31.2,29.10,North,0,4.3,15.4,95,0.00,,,0.01,WUHU216HW,2013-03-06 14:33:00,
2013-03-06 09:38:00,32.4,31.2,29.10,North,0,5.4,17.9,95,0.00,,,0.01,WUHU216HW,2013-03-06 14:38:00,
2013-03-06 09:43:00,32.4,31.2,29.11,North,0,8.3,17.9,95,0.00,,,0.01,WUHU216HW,2013-03-06 14:43:00,
2013-03-06 09:48:00,32.6,31.3,29.10,North,0,12.1,12.1,95,0.00,,,0.01,WUHU216HW,2013-03-06 14:48:00,
2013-03-06 09:53:00,32.6,31.3,29.10,NNE,23,9.2,21.5,95,0.00,,,0.01,WUHU216HW,2013-03-06 14:53:00,
2013-03-06 09:58:00,32.4,31.2,29.10,NNW,338,10.5,21.5,95,0.00,,,0.01,WUHU216HW,2013-03-06 14:58:00,
2013-03-06 10:03:00,32.6,31.3,29.11,North,0,12.1,20.8,95,0.00,,,0.01,WUHU216HW,2013-03-06 15:03:00,
2013-03-06 10:08:00,32.6,31.3,29.11,North,0,3.8,20.8,95,0.00,,,0.01,WUHU216HW,2013-03-06 15:08:00,
2013-03-06 10:13:00,32.4,31.2,29.11,North,0,11.4,24.2,95,0.00,,,0.01,WUHU216HW,2013-03-06 15:13:00,
2013-03-06 10:18:00,32.4,31.2,29.12,North,0,9.2,24.2,95,0.00,,,0.01,WUHU216HW,2013-03-06 15:18:00,
2013-03-06 10:23:00,32.4,31.2,29.12,North,0,9.2,12.1,95,0.00,,,0.01,WUHU216HW,2013-03-06 15:23:00,
2013-03-06 10:28:00,32.6,31.3,29.12,North,0,9.2,14.5,95,0.00,,,0.01,WUHU216HW,2013-03-06 15:28:00,
2013-03-06 10:33:00,32.6,31.3,29.12,North,0,10.3,14.5,95,0.00,,,0.01,WUHU216HW,2013-03-06 15:33:00,
2013-03-06 10:38:00,32.6,31.3,29.12,NNE,23,21.3,21.3,95,0.00,,,0.01,WUHU216HW,2013-03-06 15:38:00,
2013-03-06 10:43:00,32.6,31.3,29.13,North,0,7.8,25.3,95,0.00,,,0.01,WUHU216HW,2013-03-06 15:43:00,
2013-03-06 10:48:00,32.8,31.5,29.13,North,0,11.6,25.3,95,0.00,,,0.01,WUHU216HW,2013-03-06 15:48:00,
2013-03-06 10:53:00,32.8,31.5,29.14,NNE,23,19.9,22.6,95,0.00,,,0.01,WUHU216HW,2013-03-06 15:53:00,
2013-03-06 10:58:00,32.8,31.5,29.14,North,0,27.1,27.1,95,0.00,,,0.01,WUHU216HW,2013-03-06 15:58:00,
2013-03-06 11:03:00,32.8,31.5,29.14,North,0,8.1,27.1,95,0.00,,,0.01,WUHU216HW,2013-03-06 16:03:00,
2013-03-06 11:08:00,32.8,31.5,29.14,NNE,23,13.6,27.1,95,0.00,,,0.01,WUHU216HW,2013-03-06 16:08:00,
2013-03-06 11:13:00,32.8,31.5,29.14,NNE,23,18.6,19.7,95,0.01,,,0.02,WUHU216HW,2013-03-06 16:13:00,
2013-03-06 11:18:00,32.8,31.5,29.14,NNE,23,11.4,21.5,95,0.01,,,0.02,WUHU216HW,2013-03-06 16:18:00,
2013-03-06 11:23:00,32.8,31.5,29.14,NE,45,6.9,21.5,95,0.01,,,0.02,WUHU216HW,2013-03-06 16:23:00,
2013-03-06 11:28:00,32.8,31.5,29.15,North,0,17.2,19.7,95,0.01,,,0.02,WUHU216HW,2013-03-06 16:28:00,
2013-03-06 11:33:00,32.8,31.5,29.16,NNW,338,16.3,31.1,95,0.01,,,0.02,WUHU216HW,2013-03-06 16:33:00,
2013-03-06 11:38:00,32.8,31.5,29.16,North,0,10.5,31.1,95,0.01,,,0.02,WUHU216HW,2013-03-06 16:38:00,
2013-03-06 11:43:00,32.8,31.5,29.16,NNW,338,3.6,22.4,95,0.01,,,0.02,WUHU216HW,2013-03-06 16:43:00,
2013-03-06 11:48:00,32.8,31.5,29.17,NNE,23,6.9,22.4,95,0.02,,,0.03,WUHU216HW,2013-03-06 16:48:00,
2013-03-06 11:53:00,32.9,31.7,29.17,NNE,23,20.8,20.8,95,0.02,,,0.03,WUHU216HW,2013-03-06 16:53:00,
2013-03-06 11:58:00,32.8,31.5,29.17,North,0,12.3,20.8,95,0.02,,,0.03,WUHU216HW,2013-03-06 16:58:00,
2013-03-06 12:03:00,32.9,31.7,29.17,North,0,4.0,20.8,95,0.03,,,0.04,WUHU216HW,2013-03-06 17:03:00,
2013-03-06 12:08:00,32.9,31.7,29.17,NNW,338,11.9,19.7,95,0.03,,,0.04,WUHU216HW,2013-03-06 17:08:00,
2013-03-06 12:13:00,32.9,31.7,29.17,NNW,338,7.6,19.7,95,0.02,,,0.04,WUHU216HW,2013-03-06 17:13:00,
2013-03-06 12:18:00,32.9,31.7,29.18,NNW,338,14.3,17.4,95,0.03,,,0.05,WUHU216HW,2013-03-06 17:18:00,
2013-03-06 12:23:00,32.9,31.7,29.18,North,0,7.6,18.6,95,0.03,,,0.05,WUHU216HW,2013-03-06 17:23:00,
2013-03-06 12:28:00,32.9,31.7,29.18,North,0,26.2,26.2,95,0.04,,,0.06,WUHU216HW,2013-03-06 17:28:00,
2013-03-06 12:33:00,32.9,31.7,29.19,North,0,18.3,26.2,95,0.04,,,0.06,WUHU216HW,2013-03-06 17:33:00,
2013-03-06 12:38:00,33.1,31.5,29.19,North,0,10.1,26.2,94,0.05,,,0.07,WUHU216HW,2013-03-06 17:38:00,
2013-03-06 12:43:00,32.9,31.4,29.19,NNW,338,25.3,32.0,94,0.05,,,0.08,WUHU216HW,2013-03-06 17:43:00,
2013-03-06 12:48:00,33.3,31.7,29.19,NNW,338,9.4,32.0,94,0.05,,,0.08,WUHU216HW,2013-03-06 17:48:00,
2013-03-06 12:53:00,33.7,32.3,29.19,North,0,20.6,26.8,95,0.06,,,0.09,WUHU216HW,2013-03-06 17:53:00,
2013-03-06 12:58:00,34.0,32.4,29.19,North,0,11.9,28.0,94,0.07,,,0.10,WUHU216HW,2013-03-06 17:58:00,
2013-03-06 13:03:00,34.2,32.3,29.19,NE,45,22.1,28.0,93,0.08,,,0.12,WUHU216HW,2013-03-06 18:03:00,
2013-03-06 13:08:00,34.2,32.0,29.20,North,0,8.5,23.7,92,0.09,,,0.13,WUHU216HW,2013-03-06 18:08:00,
2013-03-06 13:13:00,34.4,32.0,29.20,NNW,338,14.8,23.7,91,0.12,,,0.18,WUHU216HW,2013-03-06 18:13:00,
2013-03-06 13:18:00,34.6,31.9,29.21,North,0,14.3,27.1,90,0.16,,,0.21,WUHU216HW,2013-03-06 18:18:00,
2013-03-06 13:23:00,34.6,31.9,29.21,North,0,14.5,27.1,90,0.19,,,0.25,WUHU216HW,2013-03-06 18:23:00,
2013-03-06 13:28:00,34.7,32.0,29.21,North,0,17.9,23.3,90,0.22,,,0.29,WUHU216HW,2013-03-06 18:28:00,
2013-03-06 13:33:00,34.7,31.8,29.21,North,0,27.3,30.2,89,0.22,,,0.29,WUHU216HW,2013-03-06 18:33:00,
2013-03-06 13:38:00,34.7,31.8,29.22,NNW,338,3.4,33.3,89,0.30,,,0.39,WUHU216HW,2013-03-06 18:38:00,
2013-03-06 13:43:00,34.7,31.8,29.22,NNW,338,5.6,33.3,89,0.33,,,0.42,WUHU216HW,2013-03-06 18:43:00,
2013-03-06 13:48:00,34.9,32.0,29.22,North,0,6.0,31.1,89,0.39,,,0.48,WUHU216HW,2013-03-06 18:48:00,
2013-03-06 13:53:00,34.7,31.8,29.22,North,0,16.3,31.1,89,0.55,,,0.66,WUHU216HW,2013-03-06 18:53:00,
2013-03-06 13:58:00,34.6,31.6,29.22,NNW,338,4.5,21.0,89,0.87,,,0.92,WUHU216HW,2013-03-06 18:58:00,
2013-03-06 14:03:00,34.6,31.9,29.23,NNE,23,9.2,28.2,90,0.91,,,1.04,WUHU216HW,2013-03-06 19:03:00,
2013-03-06 14:08:00,34.2,31.8,29.23,NNW,338,6.3,28.2,91,1.25,,,1.38,WUHU216HW,2013-03-06 19:08:00,
2013-03-06 14:13:00,34.2,31.8,29.24,NNW,338,8.5,26.4,91,1.18,,,1.39,WUHU216HW,2013-03-06 19:13:00,
2013-03-06 14:18:00,34.2,31.8,29.24,North,0,21.5,22.4,91,1.20,,,1.44,WUHU216HW,2013-03-06 19:18:00,
2013-03-06 14:23:00,34.4,31.7,29.24,North,0,3.6,22.4,90,1.18,,,1.44,WUHU216HW,2013-03-06 19:23:00,
2013-03-06 14:28:00,34.7,32.0,29.24,NNE,23,4.3,22.4,90,1.32,,,1.60,WUHU216HW,2013-03-06 19:28:00,
2013-03-06 14:33:00,34.9,32.0,29.25,North,0,4.7,25.9,89,1.33,,,1.72,WUHU216HW,2013-03-06 19:33:00,
2013-03-06 14:38:00,35.1,32.1,29.25,NNW,338,4.7,25.9,89,1.31,,,1.72,WUHU216HW,2013-03-06 19:38:00,
2013-03-06 14:43:00,35.3,32.3,29.26,NNW,338,4.5,11.0,89,1.29,,,1.72,WUHU216HW,2013-03-06 19:43:00,
2013-03-06 14:48:00,35.6,32.4,29.26,NNE,23,8.3,9.4,88,1.24,,,1.72,WUHU216HW,2013-03-06 19:48:00,
2013-03-06 14:53:00,35.6,32.4,29.27,NNW,338,13.4,13.4,88,0.79,,,1.72,WUHU216HW,2013-03-06 19:53:00,
2013-03-06 14:58:00,35.6,32.0,29.27,North,0,5.4,13.4,87,0.73,,,1.72,WUHU216HW,2013-03-06 19:58:00,
2013-03-06 15:03:00,35.6,32.0,29.28,North,0,2.9,13.4,87,0.68,,,1.72,WUHU216HW,2013-03-06 20:03:00,
2013-03-06 15:08:00,35.6,32.0,29.28,NNW,338,10.5,12.1,87,0.33,,,1.72,WUHU216HW,2013-03-06 20:08:00,
2013-03-06 15:13:00,35.8,32.2,29.29,NNW,338,2.7,12.1,87,0.28,,,1.72,WUHU216HW,2013-03-06 20:13:00,
2013-03-06 15:18:00,35.6,32.0,29.29,North,0,4.0,10.5,87,0.28,,,1.72,WUHU216HW,2013-03-06 20:18:00,
2013-03-06 15:23:00,35.6,32.0,29.29,North,0,3.1,18.8,87,0.16,,,1.72,WUHU216HW,2013-03-06 20:23:00,
2013-03-06 15:28:00,35.6,31.8,29.30,North,0,4.0,18.8,86,0.11,,,1.72,WUHU216HW,2013-03-06 20:28:00,
2013-03-06 15:33:00,35.8,32.2,29.30,North,0,2.5,5.6,87,0.00,,,1.72,WUHU216HW,2013-03-06 20:33:00,
2013-03-06 15:38:00,35.8,32.2,29.31,North,0,6.3,6.3,87,0.00,,,1.72,WUHU216HW,2013-03-06 20:38:00,
2013-03-06 15:43:00,35.8,32.2,29.31,North,0,2.0,6.3,87,0.00,,,1.72,WUHU216HW,2013-03-06 20:43:00,
2013-03-06 15:48:00,35.8,32.2,29.32,North,0,4.7,5.4,87,0.00,,,1.72,WUHU216HW,2013-03-06 20:48:00,
2013-03-06 15:53:00,35.8,32.2,29.32,North,0,4.5,7.8,87,0.81,,,2.53,WUHU216HW,2013-03-06 20:53:00,
2013-03-06 15:58:00,36.0,32.1,29.32,NW,315,8.3,8.7,86,0.81,,,2.53,WUHU216HW,2013-03-06 20:58:00,
2013-03-06 16:03:00,36.0,32.4,29.32,NNW,338,3.6,8.7,87,0.82,,,2.54,WUHU216HW,2013-03-06 21:03:00,
2013-03-06 16:08:00,36.0,32.1,29.32,NNE,23,3.6,8.3,86,0.82,,,2.54,WUHU216HW,2013-03-06 21:08:00,
2013-03-06 16:13:00,36.2,32.6,29.33,North,0,9.2,11.4,87,0.82,,,2.54,WUHU216HW,2013-03-06 21:13:00,
2013-03-06 16:18:00,36.4,32.2,29.33,NE,45,9.2,21.0,85,0.82,,,2.54,WUHU216HW,2013-03-06 21:18:00,
2013-03-06 16:23:00,36.5,32.7,29.33,NE,45,8.9,21.0,86,0.82,,,2.54,WUHU216HW,2013-03-06 21:23:00,
2013-03-06 16:28:00,36.5,32.4,29.34,NE,45,9.2,10.5,85,0.83,,,2.55,WUHU216HW,2013-03-06 21:28:00,
2013-03-06 16:33:00,36.5,32.1,29.34,North,0,7.6,10.5,84,0.83,,,2.55,WUHU216HW,2013-03-06 21:33:00,
2013-03-06 16:38:00,36.7,32.3,29.34,North,0,14.5,14.5,84,0.83,,,2.55,WUHU216HW,2013-03-06 21:38:00,
2013-03-06 16:43:00,36.7,32.3,29.35,NE,45,6.7,14.5,84,0.83,,,2.55,WUHU216HW,2013-03-06 21:43:00,
2013-03-06 16:48:00,36.7,32.3,29.35,NNW,338,3.4,14.5,84,0.83,,,2.55,WUHU216HW,2013-03-06 21:48:00,
2013-03-06 16:53:00,36.9,32.5,29.35,North,0,11.9,12.1,84,0.02,,,2.55,WUHU216HW,2013-03-06 21:53:00,
2013-03-06 16:58:00,36.7,32.1,29.35,North,0,6.9,11.9,83,0.03,,,2.56,WUHU216HW,2013-03-06 21:58:00,
2013-03-06 17:03:00,36.9,31.9,29.36,NNW,338,5.1,11.9,82,0.02,,,2.56,WUHU216HW,2013-03-06 22:03:00,
2013-03-06 17:08:00,36.7,32.3,29.36,North,0,2.5,6.9,84,0.02,,,2.56,WUHU216HW,2013-03-06 22:08:00,
2013-03-06 17:13:00,36.7,32.3,29.36,NNW,338,2.9,6.9,84,0.02,,,2.56,WUHU216HW,2013-03-06 22:13:00,
2013-03-06 17:18:00,36.7,32.1,29.36,NNW,338,9.6,9.6,83,0.03,,,2.57,WUHU216HW,2013-03-06 22:18:00,
2013-03-06 17:23:00,36.9,32.2,29.37,North,0,1.6,9.6,83,0.03,,,2.57,WUHU216HW,2013-03-06 22:23:00,
2013-03-06 17:28:00,36.9,31.9,29.37,NW,315,2.9,9.6,82,0.04,,,2.59,WUHU216HW,2013-03-06 22:28:00,
2013-03-06 17:33:00,37.1,32.0,29.37,NNW,338,2.9,5.6,82,0.04,,,2.59,WUHU216HW,2013-03-06 22:33:00,
2013-03-06 17:38:00,36.7,31.7,29.37,NNW,338,3.4,8.9,82,0.04,,,2.59,WUHU216HW,2013-03-06 22:38:00,
2013-03-06 17:43:00,36.9,31.9,29.37,NNW,338,2.0,8.9,82,0.04,,,2.59,WUHU216HW,2013-03-06 22:43:00,
2013-03-06 17:49:00,37.1,32.0,29.38,NNW,338,1.1,5.4,82,0.04,,,2.59,WUHU216HW,2013-03-06 22:49:00,
2013-03-06 17:54:00,37.1,31.8,29.38,NE,45,6.9,6.9,81,0.03,,,2.59,WUHU216HW,2013-03-06 22:54:00,
2013-03-06 17:59:00,37.1,31.8,29.38,NE,45,11.6,11.6,81,0.03,,,2.59,WUHU216HW,2013-03-06 22:59:00,
2013-03-06 18:04:00,37.1,32.0,29.39,ESE,113,6.3,11.6,82,0.03,,,2.59,WUHU216HW,2013-03-06 23:04:00,
2013-03-06 18:09:00,36.7,32.1,29.39,ENE,68,2.7,11.6,83,0.04,,,2.60,WUHU216HW,2013-03-06 23:09:00,
2013-03-06 18:14:00,36.7,32.3,29.39,NNW,338,1.8,6.3,84,0.04,,,2.60,WUHU216HW,2013-03-06 23:14:00,
2013-03-06 18:19:00,36.9,31.9,29.39,NNE,23,11.2,11.2,82,0.03,,,2.60,WUHU216HW,2013-03-06 23:19:00,
2013-03-06 18:24:00,37.1,31.5,29.39,NE,45,8.1,15.0,80,0.03,,,2.60,WUHU216HW,2013-03-06 23:24:00,
2013-03-06 18:29:00,37.1,32.0,29.39,East,90,2.5,15.0,82,0.01,,,2.60,WUHU216HW,2013-03-06 23:29:00,
2013-03-06 18:34:00,36.7,32.3,29.39,ENE,68,4.0,8.1,84,0.01,,,2.60,WUHU216HW,2013-03-06 23:34:00,
2013-03-06 18:39:00,36.5,32.1,29.40,ENE,68,2.5,4.5,84,0.01,,,2.60,WUHU216HW,2013-03-06 23:39:00,
2013-03-06 18:44:00,36.5,32.4,29.40,ESE,113,3.8,4.7,85,0.01,,,2.60,WUHU216HW,2013-03-06 23:44:00,
2013-03-06 18:49:00,36.4,32.2,29.40,ENE,68,4.7,6.9,85,0.01,,,2.60,WUHU216HW,2013-03-06 23:49:00,
2013-03-06 18:54:00,36.4,32.0,29.40,ENE,68,4.3,6.9,84,0.02,,,2.61,WUHU216HW,2013-03-06 23:54:00,
2013-03-06 18:59:00,36.7,31.4,29.40,North,0,12.3,12.3,81,0.02,,,2.61,WUHU216HW,2013-03-06 23:59:00,
2013-03-06 19:04:00,37.4,30.9,29.41,WNW,293,4.5,12.3,77,0.02,,,2.61,WUHU216HW,2013-03-07 00:04:00,
2013-03-06 19:09:00,37.1,30.9,29.41,NW,315,3.1,12.3,78,0.01,,,2.61,WUHU216HW,2013-03-07 00:09:00,
2013-03-06 19:14:00,37.1,31.1,29.41,NW,315,4.0,4.5,79,0.01,,,2.61,WUHU216HW,2013-03-07 00:14:00,
2013-03-06 19:19:00,36.7,31.1,29.41,NNW,338,3.8,4.0,80,0.01,,,2.61,WUHU216HW,2013-03-07 00:19:00,
2013-03-06 19:24:00,36.7,31.1,29.41,NW,315,3.1,4.0,80,0.01,,,2.61,WUHU216HW,2013-03-07 00:24:00,
2013-03-06 19:29:00,36.5,31.2,29.41,NW,315,2.5,3.8,81,0.01,,,2.61,WUHU216HW,2013-03-07 00:29:00,
2013-03-06 19:34:00,36.5,31.2,29.42,NNW,338,3.6,3.6,81,0.02,,,2.62,WUHU216HW,2013-03-07 00:34:00,
2013-03-06 19:39:00,36.4,31.1,29.42,NW,315,2.9,3.6,81,0.02,,,2.62,WUHU216HW,2013-03-07 00:39:00,
2013-03-06 19:44:00,36.4,31.1,29.42,NNW,338,1.8,6.0,81,0.02,,,2.62,WUHU216HW,2013-03-07 00:44:00,
2013-03-06 19:49:00,36.7,31.1,29.42,NNW,338,4.7,6.0,80,0.01,,,2.62,WUHU216HW,2013-03-07 00:49:00,
2013-03-06 19:54:00,36.9,31.0,29.42,North,0,3.6,4.9,79,0.01,,,2.62,WUHU216HW,2013-03-07 00:54:00,
2013-03-06 19:59:00,37.4,30.9,29.42,North,0,4.3,6.3,77,0.01,,,2.62,WUHU216HW,2013-03-07 00:59:00,
2013-03-06 20:04:00,37.6,30.8,29.42,NW,315,3.4,6.3,76,0.01,,,2.62,WUHU216HW,2013-03-07 01:04:00,
2013-03-06 20:09:00,37.4,30.9,29.42,NW,315,2.5,4.3,77,0.01,,,2.62,WUHU216HW,2013-03-07 01:09:00,
2013-03-06 20:14:00,37.1,30.5,29.43,NW,315,3.6,4.0,77,0.01,,,2.62,WUHU216HW,2013-03-07 01:14:00,
2013-03-06 20:19:00,36.9,30.7,29.43,NNW,338,2.5,3.8,78,0.01,,,2.62,WUHU216HW,2013-03-07 01:19:00,
2013-03-06 20:24:00,36.7,30.8,29.43,NNW,338,3.8,4.7,79,0.01,,,2.62,WUHU216HW,2013-03-07 01:24:00,
2013-03-06 20:29:00,36.7,30.8,29.43,NNW,338,3.8,4.7,79,0.01,,,2.63,WUHU216HW,2013-03-07 01:29:00,
2013-03-06 20:34:00,36.9,30.7,29.43,NNW,338,3.1,6.7,78,0.01,,,2.63,WUHU216HW,2013-03-07 01:34:00,
2013-03-06 20:39:00,37.3,30.4,29.43,NW,315,1.6,6.7,76,0.01,,,2.63,WUHU216HW,2013-03-07 01:39:00,
2013-03-06 20:44:00,37.3,31.1,29.43,NNW,338,2.7,4.7,78,0.01,,,2.63,WUHU216HW,2013-03-07 01:44:00,
2013-03-06 20:49:00,37.1,30.9,29.43,NW,315,4.9,4.9,78,0.01,,,2.63,WUHU216HW,2013-03-07 01:49:00,
2013-03-06 20:54:00,36.7,30.5,29.43,NW,315,5.6,5.6,78,0.01,,,2.63,WUHU216HW,2013-03-07 01:54:00,
2013-03-06 20:59:00,36.5,30.3,29.43,NW,315,2.2,13.4,78,0.01,,,2.63,WUHU216HW,2013-03-07 01:59:00,
2013-03-06 21:04:00,36.5,30.3,29.43,NW,315,8.3,13.4,78,0.01,,,2.63,WUHU216HW,2013-03-07 02:04:00,
2013-03-06 21:09:00,36.7,30.2,29.43,NW,315,6.7,11.4,77,0.01,,,2.63,WUHU216HW,2013-03-07 02:09:00,
2013-03-06 21:14:00,36.5,30.0,29.43,WNW,293,10.5,10.5,77,0.01,,,2.63,WUHU216HW,2013-03-07 02:14:00,
2013-03-06 21:19:00,36.5,30.0,29.43,NW,315,9.2,11.0,77,0.01,,,2.63,WUHU216HW,2013-03-07 02:19:00,
2013-03-06 21:24:00,36.7,30.2,29.44,NW,315,5.1,11.0,77,0.01,,,2.63,WUHU216HW,2013-03-07 02:24:00,
2013-03-06 21:29:00,36.7,30.2,29.44,NW,315,6.7,9.2,77,0.00,,,2.63,WUHU216HW,2013-03-07 02:29:00,
2013-03-06 21:34:00,36.5,30.0,29.44,NW,315,6.5,6.7,77,0.00,,,2.63,WUHU216HW,2013-03-07 02:34:00,
2013-03-06 21:39:00,36.5,30.0,29.45,NW,315,3.8,7.8,77,0.00,,,2.63,WUHU216HW,2013-03-07 02:39:00,
2013-03-06 21:44:00,36.7,30.2,29.45,WNW,293,4.5,7.8,77,0.00,,,2.63,WUHU216HW,2013-03-07 02:44:00,
2013-03-06 21:49:00,36.7,30.2,29.45,NNW,338,2.9,12.1,77,0.00,,,2.63,WUHU216HW,2013-03-07 02:49:00,
2013-03-06 21:54:00,36.5,30.0,29.45,NW,315,7.8,12.1,77,0.00,,,2.63,WUHU216HW,2013-03-07 02:54:00,
2013-03-06 21:59:00,36.5,30.3,29.45,NNW,338,2.2,7.8,78,0.00,,,2.63,WUHU216HW,2013-03-07 02:59:00,
2013-03-06 22:04:00,36.5,30.3,29.45,NW,315,5.8,7.8,78,0.00,,,2.63,WUHU216HW,2013-03-07 03:04:00,
2013-03-06 22:09:00,36.5,30.0,29.45,NW,315,4.0,5.8,77,0.00,,,2.63,WUHU216HW,2013-03-07 03:09:00,
2013-03-06 22:14:00,36.4,30.2,29.45,WNW,293,7.8,7.8,78,0.00,,,2.63,WUHU216HW,2013-03-07 03:14:00,
2013-03-06 22:19:00,36.4,30.2,29.45,NW,315,3.4,7.8,78,0.00,,,2.63,WUHU216HW,2013-03-07 03:19:00,
2013-03-06 22:24:00,36.4,30.2,29.45,NW,315,4.0,7.8,78,0.00,,,2.63,WUHU216HW,2013-03-07 03:24:00,
2013-03-06 22:29:00,36.4,30.2,29.46,NW,315,2.9,4.0,78,0.00,,,2.63,WUHU216HW,2013-03-07 03:29:00,
2013-03-06 22:34:00,36.4,30.2,29.46,NNW,338,4.5,4.5,78,0.00,,,2.63,WUHU216HW,2013-03-07 03:34:00,
2013-03-06 22:39:00,36.5,30.3,29.46,NW,315,2.5,5.1,78,0.00,,,2.63,WUHU216HW,2013-03-07 03:39:00,
2013-03-06 22:44:00,36.5,30.3,29.46,NW,315,2.5,5.1,78,0.00,,,2.63,WUHU216HW,2013-03-07 03:44:00,
2013-03-06 22:49:00,36.7,30.2,29.46,NW,315,5.8,5.8,77,0.00,,,2.63,WUHU216HW,2013-03-07 03:49:00,
2013-03-06 22:54:00,36.7,29.9,29.46,WNW,293,10.3,10.3,76,0.00,,,2.63,WUHU216HW,2013-03-07 03:54:00,
2013-03-06 22:59:00,36.7,30.2,29.46,NW,315,4.5,10.3,77,0.00,,,2.63,WUHU216HW,2013-03-07 03:59:00,
2013-03-06 23:04:00,36.7,29.9,29.46,NW,315,4.3,10.3,76,0.00,,,2.63,WUHU216HW,2013-03-07 04:04:00,
2013-03-06 23:09:00,36.7,29.9,29.46,NW,315,12.1,18.1,76,0.00,,,2.63,WUHU216HW,2013-03-07 04:09:00,
2013-03-06 23:14:00,36.7,29.9,29.46,NW,315,7.2,18.1,76,0.00,,,2.63,WUHU216HW,2013-03-07 04:14:00,
2013-03-06 23:19:00,36.7,30.2,29.46,NW,315,5.1,12.1,77,0.00,,,2.63,WUHU216HW,2013-03-07 04:19:00,
2013-03-06 23:24:00,36.7,29.9,29.46,NW,315,7.2,10.7,76,0.00,,,2.63,WUHU216HW,2013-03-07 04:24:00,
2013-03-06 23:29:00,36.7,29.9,29.46,NW,315,1.1,7.2,76,0.00,,,2.63,WUHU216HW,2013-03-07 04:29:00,
2013-03-06 23:34:00,36.7,30.2,29.46,NNW,338,3.1,3.1,77,0.00,,,2.63,WUHU216HW,2013-03-07 04:34:00,
2013-03-06 23:39:00,36.7,30.2,29.47,NW,315,3.8,4.7,77,0.00,,,2.63,WUHU216HW,2013-03-07 04:39:00,
2013-03-06 23:44:00,36.9,30.1,29.47,NW,315,4.3,4.7,76,0.00,,,2.63,WUHU216HW,2013-03-07 04:44:00,
2013-03-06 23:49:00,36.7,29.9,29.47,NW,315,2.2,4.7,76,0.00,,,2.63,WUHU216HW,2013-03-07 04:49:00,
2013-03-06 23:54:00,36.7,29.9,29.47,North,0,2.2,8.5,76,0.00,,,2.63,WUHU216HW,2013-03-07 04:54:00,